Regional Weather Roundup
Issued by NWS Albany, NY

Home | Current Version | Previous Version | Graphics & Text | Print | Product List | Glossary Off
Versions: 1 2 3 4 5 6 7 8 9 10 11 12 13 14 15 16 17 18 19 20 21 22 23 24 25 26 27 28 29 30 31 32 33 34 35 36 37 38 39 40 41 42 43 44 45 46 47 48 49 50

000
ASUS41 KALY 100210
RWRALY

NEW YORK STATE HOURLY WEATHER ROUNDUP
NATIONAL WEATHER SERVICE ALBANY NY
900 PM EST TUE FEB 09 2016

NOTE: "FAIR" INDICATES FEW OR NO CLOUDS BELOW 12,000 FEET WITH NO
SIGNIFICANT WEATHER AND/OR NO OBSTRUCTIONS TO VISIBILITY.

NYZ032-033-038>043-046>054-057>066-NYZ062>081-100300-
EAST


CITY           SKY/WX    TMP DP  RH WIND       PRES   REMARKS
ALBANY         LGT SNOW  28  24  85 CALM      29.59S FOG
GLENS FALLS    CLOUDY    24  20  84 CALM      29.58S FOG
POUGHKEEPSIE   CLOUDY    31  23  72 CALM      29.60S
NEWBURGH       CLOUDY    30  25  80 CALM      29.60S
MONTGOMERY     CLOUDY    30  25  81 CALM      29.58S
WHITE PLAINS   MOCLDY    29  23  78 CALM      29.60S
ISLIP          FLURRIES  30  23  75 CALM      29.62S
NEW YORK CITY  FLURRIES  34  24  67 SE7       29.62S WCI  28
CENTRAL PARK   CLOUDY    34  25  69 VRB3      29.64S
$$

NYZ005>009-017-018-044>046-055-056-100300-
CENTRAL


CITY           SKY/WX    TMP DP  RH WIND       PRES   REMARKS
FULTON         CLOUDY    31  27  85 CALM      29.55S
SYRACUSE       LGT SNOW  28  27  96 CALM      29.55R VSB 1
ROME           LGT SNOW  27  25  92 E5        29.56S FOG     WCI  22
ELMIRA         CLOUDY    33  32  96 CALM      29.53S FOG
BINGHAMTON     LGT SNOW  30  28  92 SW7       29.49S FOG     WCI  23
MONTICELLO     CLOUDY    28  25  86 CALM      29.54S
$$

NYZ026>034-041>043-100300-
NORTH


CITY           SKY/WX    TMP DP  RH WIND       PRES   REMARKS
WATERTOWN      LGT SNOW  25  22  88 N3        29.55S FOG
FORT DRUM      NOT AVBL
MASSENA        CLOUDY    21  16  81 N5        29.59S WCI  15
SARANAC LAKE   CLOUDY    20  17  88 NE3       29.45S
PLATTSBURGH    LGT SNOW  22  18  85 NW3       29.58F FOG
$$

NYZ001>004-010>016-019>021-100300-
WEST


CITY           SKY/WX    TMP DP  RH WIND       PRES   REMARKS
NIAGARA FALLS  MOCLDY    32  22  66 SW16G25   29.53F WCI  21
BUFFALO        FLURRIES  32  25  75 SW16G28   29.54S WCI  21
DUNKIRK        LGT SNOW  30  26  85 SW18G28   29.58S FOG     WCI  18
JAMESTOWN      CLOUDY    28  21  74 SW13G18   29.53S WCI  18
WELLSVILLE     CLOUDY    30  20  66 W9        29.51S WCI  22
ROCHESTER      CLOUDY    35  26  69 W14       29.55S WCI  26
PENN YAN       CLOUDY    34  28  79 CALM      29.53S
$$

             KEY
       WCI = WIND CHILL INDEX
       VSB = VISIBILITY
       HX  = HEAT INDEX
$$




USA.gov is the U.S. government's official web portal to all federal, state and local government web resources and services.